"Pseudo-MPEC" for P10EwQh

Created 2018 Mar 4 22:18:04 UT using Find_Orb

Click here for an explanation of pseudo-MPECs

 
 Astrometry: 
     P10EwQh  C2017 08 18ISAstrometryj+!(C;kSDGIht=\q`$i6u5#@N4D[XfZDcu`.N*/uF51
     P10EwQh  C2017 08 18-QI%4telcVAR3bH`aZ(:Fki`qEcFRno1(iQO,ap^t2vrWNbKtS;5F51
     P10EwQh  C2017 08 18-fZJ3f?\x!OP26!Kd3ia`Irh1w=?8RLY2wlxp(vq.%uo#FZjiu*9F51
     P10EwQh  C2017 09 13Gs$D6C7hppGR=DOhS.j($G(88q3vd4oiX_2oM\?'][ZTcC3K3oO[F51
     P10EwQh  C2017 09 13wAMH.I3B?VUXBJ,YDg%!q_:Lj'usr;iu#m.Ff!D`%PsIr6)MaBlUF51
     P10EwQh  C2017 09 13I6\D/S=$Bl(5(!r)F2bP,fBoP]kv8:2N_u'VT$H6mIN!o`=yl)VhF51
     P10EwQh  C2017 09 13R,KD(=^nlwiM-CQ/3EeQH9,qJpl-[`2`*n$BJt,w'))7=(VHPp/GF51
     P10EwQh  C2017 10 07p3q@xwd8d3-Of'5=bsSj(0lX!YPhQl/)jim(TZx;0By5^r68bUQ(F51
     P10EwQh  C2017 10 070dXy;JbxnQFP+(jFBj6[bLM%jO4u1D`iCUm_T7Fv)wq)s;?T#k'\F51
     P10EwQh  C2017 10 0760p1A;qd8'Xx[Ni[Ne;Wbfa6'D_rLAb\8sX-EByLTQ-(@BW`7h$OF51
     P10EwQh  C2017 10 078+0]D(cfjyX=W?brhTJO7DqH*c6-gfELP\q2E7VEIsVB6V:$ed./F51
     P10EwQh  C2017 10 29YJmB`/\V\-h\xD[Gr7C.n]fYt[eT_XvEY`3v\o)%+'#f(u$K)LbJF51
     P10EwQh  C2017 10 29_dD@ORYbO$A5^.1uWncO#O1y-6\Yx,c+8l]qT2PO!4]fco4cX=A-F51
     P10EwQh  C2017 10 29NtodVN==mZH+L_W[L-dMun_q(OC6Nq+m(Z0E'jGfp,w+X^p`ZrTsF51
     P10EwQh |C2017 10 30i6OrjM.?DnfL(PK/@LOjYMvk1lQE_r-PH%@ug9?5%F=UKOx0@W]p807
     P10EwQh |C2017 10 30HHTnZmfgC4FcgW]#7)tFTUvRepcH@fp\tg+)es))]J:t'Q#x1WNB807
     P10EwQh |C2017 10 30D[DdG:Fu3cE(k(1(R%ZWY6/EG]ci[D3yF'EA:a^2`fXBQ:NW=bhP807
     P10EwQh |C2017 10 31xwuE4^ho]Un]7mX+.=rH]PDijra[B83?33-L!/1JlHq$S%A%'YUK807
     P10EwQh |C2017 10 31wV;XxSF=AYJm4VE*G!UZZa[6f7jcm+vk9BbZ!fM5F)5P+\Q17egr807
     P10EwQh |C2017 10 31bl9R/`7+QP'm0(Y7r%t-/YC:k[%2-_5oQN!;58@C(4S0GE\M?i6y807
     P10EwQh |C2017 10 313QDH0VUpk$!t%/q=):E=H/emll25(e3/$D@Y:1];+Xn4OxNNov]Z807
     P10EwQh |C2017 11 01C)0?cuuv_@%3Z6KPvgbD!7B*elZ$,-4%pcTFHTAMBUm+nZm86^5@807
     P10EwQh |C2017 11 01I'T-XfnFEdye2.,:P;2CGZ#:LmSa3VBh\*Hx!mqeG\QUBE_]1(^k807
     P10EwQh |C2017 11 01_SrS,3@bVby:=G8o/]pEhKAhdYSlqy+Jq80*Ys:urT8sG0B0m806807
     P10EwQh |C2017 11 06=QX'd1M60Y`'qq2*Dp[C(Of8vXHfvTDWrV+.@IHit4t:ThOr1W!Q807
     P10EwQh |C2017 11 06pR0r,L==yMH-mfVoVP)*Hx^6M0+2SUc'6I.Sg-inN0KC@U'JX%bn807
     P10EwQh |C2017 11 06RrJ7^$FA(9E6F2w'UkUepx+%/^^q,kDW(([)_V1R!!RgxYCi4b:g807
     P10EwQh  C2017 11 06n@FW$_)0PMg2/oHY4'-YfEIU-cvU)v3a[q1C_xR;mUtN///ei)0lF51
     P10EwQh  C2017 11 068q/4'l0nSldJW-cU9redacted;%InSwX,t'O#7A;cP)DB:8u`=ccF51
     P10EwQh  C2017 11 06MVBv%vM]83W@c51**N54rW(0-hf-+)JX:m.?i5V[Ig!fgJa;_u4qF51
     P10EwQh  C2017 11 06WxXE?e*i=\K5%;E;3*i].PyH%gs\?Q[^pf;_)1v.GU#FpAYg%IJhF51
     P10EwQh 1C2017 11 07S#6Yj/o0`QHVqcoukbv!fBqa8A%c/X@Ek1.aAnli$cSs=(?Y$@yFQ62
     P10EwQh 1C2017 11 07ka^\'!k:A6+RxFMl8=JUJwr,,06+0\F3@(nuM.=no;:Ba-91b=/5Q62
     P10EwQh 1C2017 11 07I%u3pD,'1c%!7h=T\fpPcW]VCtRiw1d1'jUgKfm5EngfZ#R*TobkQ62
     P10EwQh  C2017 11 22L_Ek4wx.^CcKn)?])3cpyDN,((!DM')s'ta%w`35)Q`Q4%5qmxhFF51
     P10EwQh  C2017 11 22vR%x.I%5SR=M:v$T/9]:4)Y#BMR^YW6A[p14HN;$tpg3S(gBe!EeF51
     P10EwQh  C2017 11 22'!..TFBe7=F-N4/V*LZ$BH7P*YLoZKZ;MB$[iFFZcGgl[PHe)iyQF51
     P10EwQh  C2017 11 22[O[:U*Ndi-amh*mid16+#K[%7^.Z79o@NcuX7!w[/^(QhP@RaV]\F51
     P10EwQh 4C2017 11 22rCs0,-GEWgt@,2r)G[g)2/Y-at=x8yK6L[BZ)A7Jo1AC9_Dt'N`6E10
     P10EwQh 4C2017 11 22-mR\1*N0Ud]7`qt(bxwM?yK2_o`@CGV+n.gYmojHZ'9tR3nfA+SlE10
     P10EwQh 4C2017 11 22rlbX2_YCjN+1-x[QGo2:id(lXnFTSSFKFb*2HcUlkaXy_9*`.=UwE10
     P10EwQh _C2017 11 24.28167200 33 28.218-39 16 56.59         20.3 GUNEOCP568
     P10EwQh _C2017 11 24.28303400 33 28.164-39 16 56.47         20.2 GUNEOCP568
     P10EwQh _C2017 11 24.28421400 33 28.109-39 16 56.39         20.3 GUNEOCP568
     P10EwQh  C2017 12 01']C:Qin*wn0CWnU%1eq#LOVeB`PW[(9rKSIo!-loqiLex+w=#i,0W85
     P10EwQh  C2017 12 01/)JiY($;AvANy6O,\x$%KCWV@u3tt*M#/p67tRXJs,Ic5Vy34X8WW85
     P10EwQh  C2017 12 015IR06O0eVgtMX1!0CL])O+S+s1D+Fm71]=`H(p5VwmAyWd%nmTneW85
     P10EwQh  C2017 12 01:Gqg2oLYcjy[*G=7tx^;Qp0dM3mX4dG3LZO6$(q.P4bAb:%$EO^/W85
     P10EwQh  C2017 12 08:eN'X`;B`bU3v^#gNbq%8%?q]?GAN;,VB?=]aWqDv/GwvO_Gld9KW87
     P10EwQh  C2017 12 08^1bW2]_Miob3,Jj,u5)^65f?\2^v7vay-s\lF%bohu!lf.A!k%7KW87
     P10EwQh  C2017 12 08:WjQi(MZX4Yea;X-A@VcWU\ev7V!([p`LG).tdgbCRI9d04+fw!wW87
     P10EwQh  C2017 12 08R7=(NM]V/Sp[CN0jacmT'#h2CegAq$^yRe]ct6Y/kYSswcd9Wm.5W87
     P10EwQh KC2017 12 186tX!SM@kLMWc6QToaE):ZW\M8:uO1taf6o91`@^q)NI]wd\XU;57J04
     P10EwQh KC2017 12 18h'+='4Nv;lE.#+N;W2iZIgD`G;bk,+M8HTLwVl#G-)vd;eDdRBJxJ04
     P10EwQh KC2017 12 18?CLGpJKDG[!m^HG?/P;skZq0g94A7T][Z_QR/v08w#v$o/Ud]ETdJ04
     P10EwQh |C2017 12 222nyS_-jtg)Ls8(o@GYqG^@09+mm*XJWI/m*+w0XilMl3N%^Oc$:V807
     P10EwQh |C2017 12 22c-Jmc\c39fwWZ[1ktT]!J*bYCgMP[$xx`a2SNcdbDZMi.'c(Qm.m807
     P10EwQh |C2017 12 22'+ZT+eicch#$TVRqtn;TA^bIdL+o?mcxwU^xG%f%^t[jk0_`dZDM807
     P10EwQh |C2017 12 25]cSh2L5uM4M\riZsI!x-O4QAD6'.q5.iseeBwUo2+vXXr!lF$GDe807
     P10EwQh |C2017 12 25wX=rVSSe$YT3wdXFPcBQuT#v#!HHfyZ)q77$Vo8d\:;FLaQi)(]_807
     P10EwQh |C2017 12 25o8cJ:ej9ytdjeh4equ=!hHEK*ccj2!-\;rMTK!rf:A'qpbiK*kpU807
     P10EwQh KC2017 12 30v4@FsM)4y0BJ1:fw/]Q*#F%07v@gd8-d2ZGF3WC8h7$?F;KPZN*`291
     P10EwQh KC2017 12 30N0K?`k-J):4;O6bm_\PY!wtLM.T2o\Bt(ec,H#t,04I$M#:#6;1B291
     P10EwQh KC2017 12 30(?P:h36bir'R$*/xHpc\?AcB[fYPADL#=#q`j-3%*?]4(56xxL=?291
     P10EwQh |C2018 01 035:TUM+vKWyB4J($W+76i0sW9cm7a?/[.#5cPt:URmwfEOe6@.Gme807
     P10EwQh |C2018 01 03`V2wr+,S9/BV9=pnodF5\LZ1kqQyrEX!PUM[t%#*s@!AiegXGm92807
     P10EwQh |C2018 01 03^dd7\cUn_#l@?LnyOyroTm8?[q@Nd,g(J$342,MiRn/$bTo4#I'p807
     P10EwQh 1C2018 01 06BbA7+IXgs6+a$qmR`EI#eW2y5['_XCt41ClR=)7X-bK_J_LMV7_BQ62
     P10EwQh 1C2018 01 06kNWL35o90*$SPVJ3G(A/-Z1Wt7_*OxLtL)F9?;,Oy0\P@-=g5^PCQ62
     P10EwQh 1C2018 01 06saTGymQ(kWq`0Y=bqE!RAAWq*3MQ2@\nf9p]SrngidO:Et;E4gk8Q62
     P10EwQh |C2018 01 09@uKG7h+T/Uk'_)q$Y1I-'H4;i6`\05-X;EW*.@`y\g9f8qy$t,+B807
     P10EwQh |C2018 01 09@f0`Huu/-jT-!9;Ayn#f-CYXB]ROhuIh;4(c/#rG'#H@rCsfF9ND807
     P10EwQh |C2018 01 11r,fU_;w4??OSGlb$XKy[MsSpl?q`G;XT'hmwe[+0oRV11ti\tJdm807
     P10EwQh |C2018 01 11#Z:v+DFXR(FE%fZAqDj#!4NjKHn5pqIdGUdk!vw)wvbcV]4M7(L)807
     P10EwQh |C2018 01 11LQ+@f!kie9D)^6]#2F@i]TC1kxmq'tH2:hh`X-SV7kV=':t:::]Q807
     P10EwQh |C2018 01 20n_X01_*YLx:^ZGk6^]GUd;OX/C;`7v#QT3bnqu@oQ4.1[yt\I)!3807
     P10EwQh |C2018 01 20YMVO3H%6y3#;'tj!DB5R-K+/EB2NCPaV#r+k@0'?x_4%YX[Wp/bA807
     P10EwQh |C2018 01 20;K@]^oZh06F(B7H,rA^W/dkBEHvoX^kM01dHD6k4\M0sPqlKUI5?807
     P10EwQh |C2018 01 26nW=ShO8YHj@pK`pRCCcpsZby5f4/Zk'QDo6((8sbx@Inslk\?%+E807
     P10EwQh |C2018 01 26R:Ywv1uk72NtJGv3y=6G6\8LxWBWOM'B6XGTc8f72j8cW7Zm^JOQ807
     P10EwQh |C2018 01 26vN.r+8EbsAxR_y,#7L:$SgNDGA]KK4GSvs84.:R`SQFVCrqGh$hH807
     P10EwQh |C2018 01 28i8_:cs;p4T^,/lFa,TmR06$[7m9YcH!!uW4EEi)QRvRm(,:5p*9R807
     P10EwQh |C2018 01 28A`EJa%cD8OX]t!fL-X!ydo4ZMfu42v^MR=6q;(NeuO,!7Yl!wa5W807
     P10EwQh |C2018 01 28acx]wd357e,(6H0kvPf%6g8.:wJOT1l,HCp52bU?jkgT\c^BtC_3807
     P10EwQh |C2018 02 10CG'@qVO]#5_F,uYHPx8u?F2\+4$YX=lUeMP6*%Ma:3-.@H^:Y7;k807
     P10EwQh |C2018 02 10sFZx%loLGZywK]VxDKe,KsLN1EBE\]jV)J.c#i8BocL;$w'0T7*f807
     P10EwQh |C2018 02 10\M10!Nn\1v:nRBdojd'Akkw((@UQ7?,e3fHD=bx1nAucw?MNEOCP807

Station data:
(291) LPL/Spacewatch II  (N31.961626 W111.599100)  US/Arizona.  Observers J.
   V. Scotti, R. S. McMillan. 1.8-m f/2.7 reflector + CCD.
(568) Mauna Kea  (N19.826114 W155.472200)  US/Hawaii.  Observer D. J. Tholen.
   2.24-m University of Hawaii reflector.
(807) Cerro Tololo Observatory, La Serena  (S30.169133 W70.805900)  Chile.
   Observers M. Holman, J. Kavelaars, T. Grav, W. Fraser. Measurer M. Holman.
   4-m Blanco reflector + CCD.
(E10) Siding Spring-Faulkes Telescope South  (S31.273170 E149.070280)
   Australia/NSW.
(F51) Pan-STARRS 1, Haleakala  (N20.707234 W156.255910)  US/Hawaii.
   Observers N. Primak, A. Schultz, S. Watters, J. Thiel, T. Goggia. Measurer
   PS1 Science Consortium. 1.8-m Ritchey-Chrétien + CCD.
(J04) ESA Optical Ground Station, Tenerife  (N28.300922 W16.511830)  Canary
   Islands (Spain).  Observer D. Abreu. Measurers M. Micheli, D. Koschny, E.
   Schwab, M. Busch, A. Knöfel. 1.0-m f/4.4 reflector + CCD.
(Q62) iTelescope Observatory, Siding Spring  (S31.273286 E149.064420)
   Australia/NSW. 0.50-m f/6.8 astrograph + CCD + focal reducer, 0.70-m f/6.6
   astrograph + CCD.
(W85) Cerro Tololo-LCO A  (S30.167404 W70.804810)  Chile.  Observers T.
   Lister, S. Greenstreet, E. Gomez. Measurer T. Lister. 1.0-m f/8
   Ritchey-Chrétien + CCD.
(W87) Cerro Tololo-LCO C  (S30.167454 W70.804680)  Chile.

Orbital elements:  P10EwQh
   Perihelion 2019 Sep 10.567031 +/- 0.0396 TT = 13:36:31 (JD 2458737.067031)
Epoch 2018 Feb 10.0 TT = JDT 2458159.5                        AutoNEOCP
q   6.41771029 +/- 0.000323         (J2000 ecliptic)
H   10.9  G 0.15                    Peri.  325.96678 +/- 0.0048
                                    Node   276.21372 +/- 0.0007
e   1.0016817 +/- 5.08e-5           Incl.  142.63930 +/- 0.00006
From 87 observations 2017 Aug. 18-2018 Feb. 10; mean residual 0".20
Residuals in arcseconds: 
170818 F51  .21+  .16-    171106 F51  .19-  .01+    171225 807  .14-  .14+    
170818 F51  .18+  .21-    171106 F51  .20-  .09+    171225 807  .27-  .11-    
170818 F51  .14-  .13+    171107 Q62  .09+  .22-    171225 807  .04-  .06-    
170913 F51  .39-  .14+    171107 Q62  .43+  .08-    171230 291  .06+  .47+    
170913 F51  .03-  .28+    171107 Q62  .53+  .07+    171230 291  .00   .44+    
170913 F51  .02+  .16+    171122 F51  .20-  .17+    171230 291  .54-  .02+    
170913 F51  .30-  .01-    171122 F51  .19-  .12+    180103 807  .09+  .14-    
171007 F51  .20-  .13-    171122 F51  .06-  .08+    180103 807  .10+  .08-    
171007 F51  .14-  .02-    171122 F51  .07-  .17+    180103 807  .15+  .07-    
171007 F51  .13-  .14-    171122 E10  .18-  .31+    180106 Q62  .24+  .47+    
171007 F51  .17-  .05-    171122 E10  .15-  .32+    180106 Q62  .03-  .26+    
